Zurück zum Katalog

STARLINK-4216

AktivKommunikationVLEO
NORAD 53022·PAYLOAD·🇺🇸 United States

Gestartet Jul 7, 2022 von Cape Canaveral Space Force Station

Loading…

Nächste Überflüge (nächste 24 Stunden)

TLE

AktuellSource: CelesTrak SupGP

Epoche: Sep 15, 2026, 02:19 UTC

1 53022C 22076AN  26258.09701389  .00029423  00000+0  86941-3 0  2587
2 53022  53.1570 302.8906 0001240  93.2179   7.7126 15.34371955    18

Verfolge STARLINK-4216 in Echtzeit mit AllMySat

Download on the App Store